Flag Weather past 2 weeks in Geneva, Geneva, Switzerland

Now
41 °F

Quite cool.


Feels Like: 41 °F
Forecast: 39 / 66 °F
Wind: 1 mph from Northwest

Location: Geneve-Cointrin

Current Time: Oct 31, 2014 at 9:02:29 AM

Latest Report: Oct 31, 2014 at 8:00 AM


Visibility: N/A

Pressure: 30.36 "Hg

Humidity: 93%

Dew point: 39 °F

Location of GenevaLocation

Historic Weather in Geneva — Graph

°F

Geneva temperature yesterday

Maximum temperature yesterday: 61 °F (at 3:00 PM)
Minimum temperature yesterday: 41 °F (at 4:00 AM)
Average temperature yesterday: 49 °F

Past Weeks' High & Low Weather Summary

 TemperatureHumidityPressure
High75 °F (Oct 19, 4:00 PM)94% (Oct 23, 8:00 AM)30.39 "Hg (Oct 23, 8:00 AM)
Low38 °F (Oct 23, 8:00 AM)44% (Oct 21, 8:00 PM)29.86 "Hg (Oct 16, 8:00 AM)
Average54 °F79%30.17 "Hg
* Reported Oct 16 8:00 AM — Oct 31 7:00 AM, Geneva, Weather by CustomWeather, © 2014

Note: Actual official high and low records may vary slightly from our data, if they occured in-between our weather recording intervals... More about our weather records

Advertising

Geneva weather history for previous 24 hours

 ConditionsComfort  
Time TempWeatherWind HumidityBarometerVisibility
7:00 AM
Oct 31
41 °FFog.No wind93%30.34 "Hg1 mi
6:00 AM41 °FQuite cool.1 mph91%30.34 "HgN/A
5:00 AM42 °FQuite cool.1 mph92%30.34 "HgN/A
4:00 AM42 °FFog.1 mph90%30.34 "Hg4 mi
3:00 AM42 °FQuite cool.1 mph92%30.34 "HgN/A
2:00 AM43 °FQuite cool.1 mph91%30.34 "HgN/A
1:00 AM44 °FFog.1 mph92%30.34 "Hg7 mi
12:00 AM44 °FQuite cool.1 mph92%30.34 "HgN/A
11:00 PM
Oct 30
46 °FCool.1 mph92%30.33 "HgN/A
10:00 PM47 °FFog.No wind91%30.32 "Hg9 mi
9:00 PM48 °FCool.1 mph91%30.31 "HgN/A
8:00 PM50 °FCool.1 mph89%30.29 "HgN/A
7:00 PM51 °FFog.2 mph88%30.29 "Hg8 mi
6:00 PM54 °FCool.2 mph84%30.26 "HgN/A
5:00 PM57 °FCool.2 mph76%30.23 "HgN/A
4:00 PM60 °FPassing clouds.5 mph64%30.21 "Hg12 mi
3:00 PM61 °FRefreshingly cool.6 mph57%30.21 "HgN/A
2:00 PM60 °FRefreshingly cool.5 mph57%30.23 "HgN/A
1:00 PM59 °FPassing clouds.6 mph62%30.24 "Hg12 mi
12:00 PM57 °FCool.5 mph65%30.26 "HgN/A
11:00 AM54 °FCool.2 mph77%30.27 "HgN/A
10:00 AM51 °FPassing clouds.1 mph83%30.28 "Hg10 mi
9:00 AM46 °FCool.1 mph87%30.29 "HgN/A
Weather by CustomWeather, © 2014

See weather overviewHow to use our weather pages